Location: Curupao
(10.4996°N, 66.6442°W)
Time: 23:03:15
(UTC+00:00)

Cosmos 2360 Rocket - Pass Details

Date: 23 May 2024
Orbit: 832 x 846 km, 71.0° (Epoch: 15 June)

Event Time Altitude Azimuth Distance (km) Brightness Sun altitude
Rises 07:13:45 0° 1° (N) 3,393 5.8 -37.8°
Reaches altitude 10° 07:16:29 10° 12° (NNE) 2,458 5.1 -37.3°
Maximum altitude 07:21:23 30° 72° (ENE) 1,460 3.8 -36.3°
Enters shadow 07:23:27 24° 108° (ESE) 1,682 4.0 -35.9°
